Presure
242 243 246 228 201 175 197 184 191 209 186 134 173 205 148 194 184 200 181 189 178 166 171 172 172 172 185 187 187 185 191 192 196 195 186 202 207 208 207 222 159 240 255 276 302 326 337 335 311 308 304 269 265 261
240 237 236 241 224 205 212 185 163 204 140 221 209 164 202 175 181 152 202 182 166 181 172 175 170 183 182 175 172 189 187 195 195 184 178 186 194 198 201 203 210 207 223 227 237 247 252 270 321 330 340 306 282 268
149 239 222 239 238 196 170 205 186 215 182 176 169 207 191 180 191 180 195 199 182 186 169 171 185 164 177 157 194 185 183 174 177 190 197 193 200 200 205 198 199 206 212 207 202 204 220 222 224 226 225 223 230 229
230 257 241 235 232 230 225 221 214 200 210 181 216 202 183 178 189 192 174 164 182 185 187 184 174 180 172 180 176 180 191 174 179 167 194 203 189 198 196 204 186 187 196 195 201 198 201 202 205 203 204 206 204 199
260 241 248 252 248 247 231 200 226 233 213 167 168 176 196 213 201 203 190 182 185 199 183 182 191 194 177 166 190 186 163 187 178 188 196 190 193 187 177 182 172 170 192 189 183 185 185 189 195 192 191 190 190 186
261 261 255 253 244 241 241 246 243 203 146 193 197 163 197 205 207 171 201 187 191 189 202 188 179 175 183 172 159 189 189 174 186 190 169 166 201 188 185 182 191 186 182 182 181 180 186 190 193 186 185 183 182 182
283 252 243 262 268 243 243 245 239 206 185 196 224 173 183 175 197 162 161 205 186 187 186 201 195 181 185 182 191 176 189 188 194 194 187 188 194 177 168 185 194 198 168 165 177 179 181 144 177 182 182 181 179 177
270 253 247 239 269 266 254 249 231 225 192 210 227 213 189 199 167 195 193 196 215 205 200 184 187 195 195 188 188 181 189 191 174 184 196 182 179 197 208 196 163 184 189 194 181 202 177 186 173 168 166 163 191 189
283 246 252 241 266 265 247 253 245 232 215 226 190 213 197 151 202 204 207 176 196 199 169 194 190 206 203 199 194 188 187 175 189 182 192 196 196 203 196 184 193 169 185 191 192 192 194 195 161 195 193 188 196 196
322 292 245 251 265 265 250 244 249 245 195 221 213 155 133 229 213 214 162 216 148 213 200 206 208 182 199 206 176 166 198 184 184 190 179 179 192 180 198 200 201 194 193 193 191 162 162 187 198 199 199 199 201 209
319 282 257 249 246 265 256 242 245 244 247 235 196 231 204 199 216 210 191 213 160 195 199 205 197 202 204 187 187 206 194 185 187 188 195 188 192 191 196 194 185 192 189 184 195 191 204 201 194 191 202 203 201 205
356 322 243 241 244 261 256 248 244 244 248 246 231 208 233 202 203 178 207 158 200 135 193 204 212 209 211 200 192 173 178 204 196 182 182 189 192 187 186 194 189 180 197 200 199 198 204 202 208 200 199 207 201 202
338 345 286 243 243 258 258 256 255 239 246 247 240 232 198 194 204 230 191 190 214 206 158 196 186 187 201 200 203 218 222 214 194 192 179 193 198 193 195 199 195 197 200 198 198 200 199 197 197 201 199 201 208 211
324 309 291 274 243 255 253 262 256 249 241 243 247 251 241 222 243 219 234 204 207 198 201 200 209 168 207 208 185 207 207 195 216 216 206 193 203 206 206 206 204 205 205 204 200 202 203 204 210 213 211 212 217 222
325 318 288 260 252 260 263 261 257 257 255 251 252 247 251 247 249 189 113 119 192 150 208 208 157 208 212 219 210 204 207 182 201 185 206 217 214 210 190 175 217 215 216 213 219 219 214 218 219 222 225 226 222 230
347 315 289 272 265 261 256 260 260 257 252 258 259 251 255 261 208 243 103 151 221 233 222 135 209 210 212 201 218 220 210 191 202 204 217 221 225 212 217 223 222 222 224 213 218 216 214 222 227 229 218 222 231 231
325 321 295 274 267 265 263 265 279 261 265 266 249 250 253 248 249 248 250 245 246 143 230 217 208 224 219 215 215 217 204 165 210 222 212 214 209 218 205 236 233 214 215 221 222 214 229 218 213 211 219 207 216 229
316 334 277 280 282 284 268 268 267 265 261 259 261 229 80 161 161 252 87 248 115 248 249 235 223 128 139 193 182 185 127 182 219 228 207 216 225 226 225 204 218 203 209 210 223 215 211 228 224 217 213 228 226 219
326 318 346 288 268 277 272 269 273 272 83 279 276 262 278 235 239 256 260 188 220 190 263 182 244 202 199 87 218 190 211 205 204 209 242 241 232 208 219 224 241 223 213 235 230 233 208 234 239 263 253 238 226 236
335 327 324 332 349 313 256 272 276 262 265 118 264 270 257 254 252 247 247 253 266 269 226 117 141 230 130 234 222 208 199 224 221 215 214 254 246 242 213 245 235 226 260 236 229 235 248 221 228 274 266 266 248 190
342 340 331 323 326 335 352 341 261 260 247 260 254 259 265 262 302 105 254 261 264 257 251 262 248 78 236 239 244 226 224 258 246 243 262 250 246 256 258 268 227 215 238 267 274 273 271 266 237 239 260 262 258 273
396 364 338 343 329 330 322 336 338 81 80 77 83 251 80 130 265 267 267 273 281 267 263 254 252 266 273 276 264 238 280 279 255 263 251 238 228 219 235 263 259 253 268 260 250 241 244 252 255 249 266 235 250 228
385 387 394 388 373 343 328 316 311 321 320 349 357 325 262 255 255 263 265 276 262 258 262 267 266 270 277 270 271 266 272 273 273 272 269 270 268 269 261 264 262 255 245 244 246 236 251 288 213 248 181 212 263 223
373 372 380 383 389 395 400 384 320 305 306 310 322 334 343 354 369 369 75 260 254 258 257 255 255 256 259 259 257 236 250 252 238 233 249 251 251 262 240 234 234 239 258 268 272 279 277 307 247 255 163 250 249 172
359 364 366 371 375 378 378 368 375 369 324 312 314 315 313 325 371 381 373 355 351 350 347 345 345 350 297 288 281 275 267 267 271 269 268 270 276 277 278 286 288 292 331 325 325 324 318 317 314 315 316 198 206 314
349 355 354 355 359 353 355 355 356 359 367 371 371 370 344 357 322 351 347 357 369 368 363 359 356 352 346 341 336 333 328 336 339 341 336 334 331 329 327 326 328 298 327 324 322 321 290 305 316 313 311 312 315 316
327 336 343 346 349 356 353 345 348 353 352 354 355 356 359 364 362 359 361 367 368 370 370 371 371 370 364 362 360 355 348 341 334 325 318 315 315 317 321 320 318 317 312 309 309 309 308 307 305 308 311 311 314 317
305 312 328 333 340 340 345 347 345 342 339 349 348 352 353 356 351 355 353 355 355 358 363 367 366 378 383 384 381 365 381 371 361 357 352 344 339 327 313 310 313 312 310 309 309 310 311 312 313 312 315 316 313 314
298 305 305 313 325 329 334 334 338 338 339 336 336 339 339 338 335 335 336 337 338 336 348 356 364 371 376 436 415 389 367 371 377 375 376 373 371 381 369 379 340 331 323 285 314 315 310 313 321 309 309 312 317 339
297 290 295 304 302 308 314 317 321 323 323 322 323 321 323 322 322 318 318 323 329 334 340 343 347 344 376 367 355 358 350 363 363 358 359 368 379 378 375 385 386 234 370 344 341 310 347 328 321 323 338 340 339 338
358 318 303 296 299 303 302 302 306 309 310 311 312 314 316 316 315 317 314 321 324 325 325 328 355 355 363 363 352 352 350 326 335 327 347 377 374 356 354 351 348 347 210 172 341 340 334 332 334 335 335 336 334 340
344 346 349 320 305 298 297 304 306 304 305 305 308 309 309 307 307 314 307 305 306 319 315 314 323 330 334 333 335 339 344 343 332 336 329 330 325 325 323 328 325 328 324 326 320 324 328 333 339 328 329 393 396 371
334 335 347 339 335 321 306 301 298 303 303 301 303 304 304 307 304 306 307 313 316 310 306 305 308 308 308 309 312 312 313 314 318 322 320 317 311 310 311 316 316 320 321 324 323 323 327 329 344 391 363 344 402 390
Wind_Speed
99 95 91 90 86 73 85 77 67 60 65 42 50 61 39 50 41 42 37 36 29 27 20 17 13 9 11 12 11 9 13 13 16 16 13 24 29 31 31 36 11 36 39 40 36 29 22 19 16 17 26 28 30 29
99 95 90 91 83 87 77 80 59 64 42 59 65 54 63 52 45 37 44 38 34 30 26 22 19 16 13 8 8 12 9 13 13 3 2 8 14 17 18 24 28 26 28 27 26 29 26 26 22 19 18 18 18 18
56 99 87 94 92 85 65 81 79 65 70 60 54 65 63 54 54 47 46 46 41 38 34 30 26 25 16 15 20 13 9 8 6 10 13 8 12 12 14 13 16 19 21 18 16 16 16 13 12 10 8 9 11 14
91 104 100 92 94 92 86 83 78 77 78 63 62 70 59 52 58 56 47 43 45 43 39 37 31 27 24 21 18 16 20 15 12 13 12 13 5 7 6 8 5 6 8 9 10 9 8 7 5 6 6 7 11 16
96 97 100 101 98 97 96 89 87 83 81 59 57 60 65 66 69 64 57 52 47 50 43 39 40 38 30 30 30 26 22 19 17 17 15 11 11 9 14 9 13 13 2 6 13 13 15 10 10 13 15 18 20 25
95 99 100 100 95 96 96 92 91 87 51 85 73 63 76 73 70 48 63 56 57 53 52 50 42 39 38 35 32 34 31 24 22 23 22 24 19 15 17 16 12 13 13 14 16 19 15 16 18 22 25 28 30 34
97 96 94 94 99 98 96 94 91 78 86 82 75 65 69 64 76 53 50 65 56 55 51 51 54 47 45 41 42 37 37 34 38 35 32 29 30 26 27 22 26 20 27 29 25 25 25 28 29 29 32 35 38 41
95 95 96 89 94 98 99 96 92 86 89 86 78 86 75 84 61 73 67 67 65 61 60 53 56 57 58 51 48 40 43 42 35 39 41 36 38 39 35 26 28 31 29 28 32 31 33 33 38 40 42 44 43 46
96 94 96 91 94 98 95 95 97 93 94 86 86 91 89 45 82 84 78 58 66 63 50 64 64 64 62 61 58 52 47 41 47 44 45 48 50 47 41 32 35 41 37 40 38 37 40 42 44 43 44 46 48 50
97 99 96 94 93 96 95 94 93 95 97 95 96 55 43 82 87 81 54 75 44 68 64 69 69 59 67 66 47 46 61 50 50 54 43 48 52 35 51 53 53 46 45 44 43 47 48 47 52 55 56 58 60 66
91 99 97 94 91 96 96 96 95 95 97 99 95 94 97 90 90 91 70 79 53 67 70 73 67 74 73 56 54 68 63 58 56 59 62 61 53 47 58 58 49 52 50 51 56 53 64 63 55 56 66 68 67 71
70 90 95 92 91 97 95 97 96 95 96 99 100 99 96 96 94 67 85 54 67 49 71 78 81 80 79 73 67 46 49 69 66 60 58 65 55 52 54 62 55 54 63 65 65 67 70 69 75 68 67 80 73 74
72 74 98 94 93 97 96 97 99 98 97 97 101 103 91 79 92 93 71 64 74 82 62 80 69 66 74 75 72 74 73 73 72 73 69 75 73 69 67 70 65 69 73 69 69 73 71 69 71 78 72 77 88 93
74 91 97 100 91 97 96 98 98 99 99 99 99 100 104 96 99 95 88 85 79 84 87 84 92 58 88 85 59 78 76 72 73 77 87 68 85 86 84 83 83 85 86 85 80 84 86 87 93 95 95 97 102 103
72 84 94 95 94 99 100 100 98 99 102 102 102 100 98 97 91 60 7 6 48 54 95 95 46 94 96 97 87 80 81 56 74 79 88 91 89 86 68 55 93 93 95 92 98 97 97 100 101 102 103 103 99 104
66 81 95 98 98 98 96 97 99 99 99 101 101 94 93 91 80 90 30 48 96 95 102 39 97 100 99 85 97 95 88 81 92 89 94 91 90 84 89 92 93 94 95 93 97 94 95 101 105 104 97 101 106 104
68 76 91 95 96 97 95 96 103 97 100 99 92 93 93 92 94 91 91 95 98 50 99 103 97 108 105 98 95 96 90 67 91 101 87 93 87 96 82 97 97 90 93 98 100 95 106 97 90 85 99 83 90 101
72 70 88 92 95 99 96 96 96 93 89 88 96 91 21 52 49 95 24 94 34 102 107 110 108 45 43 80 63 65 25 68 104 106 85 101 103 100 101 83 96 85 86 87 102 91 82 108 105 96 87 110 102 97
69 72 66 81 92 94 92 94 93 89 13 97 101 97 106 95 97 100 100 63 84 64 104 75 110 78 66 19 95 69 86 98 90 92 105 108 107 86 94 99 105 103 96 107 111 111 81 105 115 106 108 116 106 106
65 67 71 70 68 77 87 89 91 85 86 34 90 99 95 98 101 99 98 99 103 103 85 13 22 99 34 98 104 101 83 105 106 102 97 104 109 109 92 105 102 101 99 108 110 105 105 100 102 101 99 104 109 55
64 66 67 69 70 69 67 69 87 87 78 88 90 94 98 98 117 32 101 103 102 99 95 96 96 14 100 101 100 103 104 101 99 101 96 101 105 101 99 101 103 96 104 95 98 97 96 94 99 98 95 95 96 94
44 58 64 64 67 67 70 65 68 32 31 25 24 91 24 40 97 99 99 99 98 93 95 96 97 101 100 96 97 94 98 95 95 95 102 101 99 96 97 98 98 103 95 89 88 93 93 91 93 87 95 78 93 81
36 39 40 46 53 62 63 68 71 69 73 66 67 80 98 94 94 96 92 97 94 96 96 95 96 98 99 99 100 95 99 96 91 90 90 92 93 92 90 91 92 90 89 92 91 93 94 98 65 91 36 59 93 77
32 34 35 37 36 33 34 42 65 71 73 74 73 72 72 73 74 77 10 96 95 96 93 92 89 87 87 88 87 83 89 90 82 80 88 90 88 94 89 90 90 92 98 101 101 106 103 90 95 94 30 89 90 37
27 28 27 26 27 29 33 40 41 47 66 72 72 73 74 75 64 62 63 72 78 80 82 85 87 83 104 101 99 98 100 98 97 96 99 101 100 101 102 105 107 108 82 85 84 85 85 85 86 85 83 44 47 84
21 20 23 26 29 34 36 39 44 46 47 49 50 51 63 59 69 60 67 67 66 68 72 74 74 73 73 74 75 76 77 72 69 68 72 72 74 74 75 76 75 68 76 77 77 77 68 73 77 80 81 81 81 81
20 22 24 27 29 31 35 40 41 41 43 43 44 45 47 46 47 52 55 55 56 58 60 61 61 61 62 63 63 64 66 67 70 72 74 74 73 72 70 70 72 73 74 74 75 75 77 78 79 78 79 81 81 80
27 25 24 26 27 30 32 35 37 38 38 37 38 39 39 40 43 43 45 47 49 50 49 49 51 50 50 51 52 51 53 58 61 62 64 67 68 69 70 70 70 70 70 71 72 72 73 75 76 76 76 76 78 77
30 28 27 26 26 26 28 29 30 32 32 34 35 36 35 35 36 38 41 43 43 46 45 42 39 36 35 25 28 37 45 43 40 42 43 45 46 46 51 49 62 63 67 60 70 71 71 71 71 73 74 74 74 75
34 32 30 30 29 28 28 29 29 30 31 33 35 35 34 35 36 37 41 42 40 38 36 34 30 30 23 29 31 32 35 33 34 37 38 36 32 32 32 31 34 27 39 55 57 50 56 63 68 69 67 68 70 71
24 35 35 34 33 32 32 32 32 31 32 33 34 34 35 36 38 38 38 37 35 32 31 29 22 18 18 18 27 26 27 40 35 40 33 23 24 29 31 34 37 39 24 20 47 49 53 58 62 63 65 68 68 69
25 28 31 37 37 36 35 34 34 34 33 34 34 33 33 33 33 34 35 36 35 33 31 31 29 27 24 23 24 23 24 25 27 28 31 31 33 33 36 37 39 42 45 47 50 54 57 60 61 60 62 59 56 56
23 25 27 29 31 35 36 37 37 36 36 36 35 35 36 36 37 37 37 36 35 33 33 33 31 29 28 27 27 27 26 27 28 30 32 34 36 39 42 44 47 49 50 52 52 53 55 57 56 54 53 53 40 41
Wind_Direction
219 220 217 218 210 219 206 220 229 232 224 232 225 232 231 237 232 232 241 246 242 233 224 241 226 226 313 330 340 357 4 27 37 46 51 59 63 65 64 56 178 68 72 77 81 90 104 127 145 177 202 206 214 221
216 221 219 217 223 218 225 218 220 233 225 233 228 225 232 232 230 239 233 241 229 244 226 232 227 270 278 240 235 325 338 355 4 61 75 70 58 75 73 83 73 77 68 73 81 86 90 93 115 138 161 196 205 210
218 220 220 216 219 221 221 211 221 227 224 222 221 230 232 235 235 231 233 235 244 247 240 240 255 233 248 246 290 290 289 246 289 342 353 19 24 46 52 88 94 85 81 94 114 111 83 94 109 117 148 178 187 204
218 215 220 218 219 222 225 226 221 216 223 228 221 227 227 228 235 233 234 237 238 245 247 246 241 245 235 251 239 261 285 245 264 274 324 331 335 9 30 50 184 161 116 129 106 130 124 135 145 183 200 210 225 238
214 218 219 217 216 219 223 218 223 227 218 220 223 227 230 232 234 236 232 237 239 239 246 246 252 255 243 240 264 268 265 269 258 281 292 283 294 274 225 225 260 250 234 212 225 228 229 237 245 249 252 255 260 255
213 213 217 217 216 217 220 220 219 221 232 222 227 230 231 231 233 224 236 236 239 243 241 247 246 242 253 239 251 264 265 238 273 278 254 262 279 259 263 254 267 260 251 252 245 247 256 270 272 264 263 262 264 267
211 214 219 216 216 217 220 217 219 222 221 229 223 231 232 229 234 229 231 236 239 242 243 241 247 251 255 251 258 247 265 267 275 272 272 279 282 253 264 270 275 272 255 260 261 262 262 272 263 268 269 269 270 272
211 214 218 219 215 215 218 217 218 219 225 221 223 220 227 232 229 235 237 239 237 237 241 248 248 247 252 257 257 257 262 264 246 266 276 269 267 279 282 273 261 268 272 273 267 280 264 270 268 271 272 275 272 273
210 213 216 220 214 214 216 218 218 220 217 220 230 220 230 234 231 235 235 234 238 239 238 245 249 247 250 252 256 260 260 257 265 265 272 273 273 276 280 253 277 256 272 286 287 287 287 284 278 278 275 272 281 281
213 209 216 217 215 215 215 217 218 220 223 219 223 236 216 225 226 230 235 233 242 239 241 243 244 251 253 252 246 248 256 261 265 267 263 263 272 260 277 276 275 277 279 282 280 273 275 279 287 287 289 289 291 293
212 208 213 217 218 216 215 216 218 219 221 222 232 225 226 235 226 231 238 235 238 243 244 245 246 248 248 251 251 253 258 256 265 267 265 272 272 267 275 277 270 279 276 271 284 283 288 288 287 285 293 294 294 295
212 213 216 218 219 217 217 217 219 219 221 222 224 228 227 235 236 242 235 237 238 235 245 246 246 248 247 249 253 250 262 258 263 268 271 271 271 268 269 276 277 277 284 286 289 287 289 291 292 294 293 297 296 298
212 211 209 219 220 218 219 219 220 220 221 222 224 226 237 240 239 233 232 234 232 237 247 246 245 247 250 250 249 248 249 252 257 265 269 269 271 275 277 277 281 282 283 285 287 289 291 293 293 294 294 296 295 296
213 211 209 210 220 219 221 221 221 221 223 224 225 227 229 236 233 235 236 238 239 245 245 248 248 248 251 254 250 255 254 259 254 253 257 270 267 267 270 273 276 277 279 282 286 287 288 289 287 288 291 292 293 293
214 214 211 215 219 218 220 223 224 225 225 228 228 228 231 233 234 231 169 171 228 250 243 245 251 250 252 252 256 259 258 251 253 260 260 258 259 266 269 270 269 272 275 279 278 279 283 284 287 287 287 289 293 291
216 215 213 213 217 220 222 223 225 226 227 229 230 231 232 234 233 234 222 232 237 234 236 243 247 250 251 251 253 254 257 259 260 262 260 262 262 270 267 266 268 270 271 277 277 281 284 283 284 285 292 292 291 292
217 219 216 216 219 222 224 224 223 226 228 229 231 233 235 233 234 233 232 235 236 247 236 242 248 242 246 251 253 252 252 261 264 261 266 269 271 268 274 265 266 276 277 275 277 282 280 286 289 290 290 292 295 293
221 220 218 219 220 221 225 227 228 229 229 231 232 238 215 229 232 237 213 233 233 237 239 240 244 241 241 250 248 261 268 260 259 259 266 267 265 267 267 276 275 278 279 284 280 285 284 284 287 288 289 291 293 296
221 221 223 223 223 224 226 227 229 230 172 230 230 235 235 240 242 242 240 231 234 234 240 239 243 248 249 208 250 254 253 261 262 263 261 261 264 274 272 272 268 274 280 273 276 277 285 283 282 286 286 285 293 293
222 220 222 223 225 226 228 227 228 230 231 205 232 234 234 237 240 241 243 244 246 243 239 181 225 248 231 248 251 259 266 259 261 267 271 263 262 265 275 268 269 275 274 271 275 281 282 287 289 287 286 288 289 290
223 224 223 222 224 225 227 228 230 231 232 233 234 235 237 238 239 186 241 243 243 246 250 251 249 219 250 251 252 251 255 258 258 262 262 262 265 265 266 266 270 278 273 279 280 281 282 283 283 285 289 289 290 291
219 223 225 226 225 225 225 225 227 179 191 199 193 237 215 233 242 244 244 246 248 248 249 249 252 255 257 257 254 260 259 259 260 263 263 263 266 271 271 268 269 271 276 276 275 277 280 281 282 284 286 288 290 294
214 219 221 225 227 228 226 225 227 228 229 233 235 237 239 240 241 243 245 247 249 249 249 250 250 253 254 256 258 262 265 267 267 267 266 267 268 270 267 271 272 272 273 274 275 276 280 285 286 284 286 285 288 289
214 218 220 222 226 228 228 229 228 227 229 231 233 235 236 239 241 243 184 249 250 251 252 253 253 253 255 257 259 259 261 263 262 262 266 269 269 272 265 266 268 270 277 279 280 281 282 284 283 286 275 288 290 280
214 217 218 218 217 217 218 222 224 230 232 232 233 235 237 239 243 245 246 247 247 248 249 251 252 254 256 258 260 262 264 265 266 268 268 269 269 270 272 272 273 275 274 276 277 279 281 282 283 285 287 298 283 291
211 208 208 209 210 212 214 218 223 225 228 231 233 236 240 242 241 243 244 246 248 250 251 253 254 256 257 258 259 260 261 262 263 263 263 263 265 266 268 269 270 272 271 273 275 277 280 282 283 284 285 288 289 292
200 201 204 206 209 212 213 220 225 227 229 232 234 236 239 241 242 244 247 249 252 253 254 256 257 257 258 259 259 259 259 258 258 259 261 263 264 265 266 267 267 269 270 272 275 276 277 278 281 284 285 287 291 293
206 206 204 207 212 213 215 219 224 227 230 231 234 236 237 237 240 243 248 251 254 256 259 261 260 262 261 260 260 258 259 259 258 259 258 259 260 262 265 267 268 269 270 271 272 274 275 277 278 283 287 289 290 295
211 208 210 211 213 215 217 220 224 227 229 232 235 237 238 239 241 244 247 251 254 255 259 263 269 272 270 265 251 252 258 259 259 260 261 262 265 263 263 265 266 267 268 270 271 272 275 278 281 283 286 291 295 298
216 216 215 214 216 216 216 218 220 221 223 227 231 233 235 237 238 241 245 250 254 260 268 272 277 273 262 256 258 256 257 252 253 256 256 257 257 261 262 265 262 261 267 271 275 278 281 281 283 287 291 293 296 297
208 219 220 220 220 220 219 220 222 222 224 227 229 233 234 235 238 241 246 252 258 264 266 272 264 244 234 229 243 241 245 260 257 259 260 254 253 260 265 268 272 274 276 277 282 285 286 286 288 292 295 295 297 300
217 215 217 221 222 222 223 224 226 226 226 228 231 233 236 237 240 242 242 247 252 259 264 266 274 277 274 270 266 264 255 257 264 264 266 269 269 272 275 279 281 282 282 283 285 288 287 290 291 294 296 297 296 296
225 221 224 222 223 225 226 226 227 229 230 231 232 233 234 236 237 239 242 246 248 250 254 257 260 262 263 265 268 268 270 272 276 278 276 275 277 276 277 278 280 281 284 286 288 289 290 292 294 293 290 292 295 296